This is the latest recevied weather packets stored in our database for station/object N8VDS-10. If no packets are shown the sender has not sent any weather packets the latest 10 day(s).
| Time | Temp. | Humidity | Pressure | Rain* | Wind** | Luminosity | Snow |
|---|---|---|---|---|---|---|---|
| 1777549752 | 3.89° C | 87% | 1018 hPa | 0 mm | - | 53 W/m² | - |
| 1777549447 | 3.89° C | 88% | 1017.9 hPa | 0 mm | - | 37 W/m² | - |
| 1777549144 | 3.89° C | 88% | 1017.8 hPa | 0 mm | - | 29 W/m² | - |
| 1777548840 | 3.89° C | 88% | 1017.8 hPa | 0 mm | - | 28 W/m² | - |
| 1777548537 | 3.89° C | 88% | 1017.9 hPa | 0 mm | - | 28 W/m² | - |
| 1777548234 | 3.89° C | 88% | 1017.8 hPa | 0 mm | - | 33 W/m² | - |
| 1777547931 | 3.89° C | 88% | 1017.8 hPa | 0 mm | - | 32 W/m² | - |
| 1777547627 | 3.89° C | 88% | 1017.7 hPa | 0 mm | - | 28 W/m² | - |
| 1777547323 | 3.89° C | 88% | 1018 hPa | 0 mm | - | 23 W/m² | - |
| 1777547021 | 3.89° C | 88% | 1017.9 hPa | 0 mm | - | 20 W/m² | - |
| 1777546718 | 4.44° C | 88% | 1017.6 hPa | 0 mm | - | 16 W/m² | - |
| 1777546415 | 4.44° C | 88% | 1017.7 hPa | 0 mm | - | 12 W/m² | - |
| 1777546112 | 4.44° C | 88% | 1017.6 hPa | 0 mm | - | 10 W/m² | - |
| 1777545807 | 4.44° C | 88% | 1017.6 hPa | 0 mm | - | 5 W/m² | - |
| 1777545505 | 4.44° C | 89% | 1017.6 hPa | 0 mm | - | 2 W/m² | - |
| 1777545201 | 4.44° C | 90% | 1017.5 hPa | 0 mm | - | 1 W/m² | - |
| 1777544900 | 4.44° C | 90% | 1017.6 hPa | 0 mm | - | 1 W/m² | - |
| 1777544595 | 4.44° C | 90% | 1017.3 hPa | 0 mm | - | 1 W/m² | - |
| 1777544292 | 4.44° C | 91% | 1017.3 hPa | 0 mm | - | 0 W/m² | - |
| 1777543989 | 4.44° C | 91% | 1017.4 hPa | 0 mm | - | 0 W/m² | - |
| 1777543685 | 4.44° C | 91% | 1017.2 hPa | 0 mm | - | 0 W/m² | - |
| 1777543381 | 4.44° C | 91% | 1017.3 hPa | 0 mm | - | 0 W/m² | - |
| 1777543076 | 4.44° C | 92% | 1017.1 hPa | 0 mm | - | 0 W/m² | - |
| 1777542774 | 4.44° C | 93% | 1017.2 hPa | 0 mm | - | 0 W/m² | - |
| 1777542470 | 4.44° C | 93% | 1017.1 hPa | 0 mm | - | 0 W/m² | - |
* Rain latest hour (hover to see other rain measurements)
** Current wind speed in m/s (hover to see current wind gust speed)